Volver al catálogo

STARLINK-30777

ActivoComunicacionesVLEO
NORAD 58233·PAYLOAD·🇺🇸 United States

Lanzado Nov 8, 2023 desde Cape Canaveral Space Force Station

Loading…

Próximos Pases (próximas 24 horas)

TLE

ActualizadoSource: CelesTrak SupGP

Época: Sep 14, 2026, 22:26 UTC

1 58233C 23171D   26257.93520833  .00015696  00000+0  56857-3 0  2577
2 58233  43.0003 296.8192 0001483 264.8353  77.9566 15.27566555    15

Sigue STARLINK-30777 en tiempo real con AllMySat

Download on the App Store